カタログに戻る

COSMOS 2251 DEB

運用中LEO
NORAD 35028·DEBRIS·🇷🇺 Russia

打ち上げ Jun 16, 1993 から Plesetsk Cosmodrome

Loading…

次のパス (今後24時間)

TLE

最新Source: Space-Track

元期: Sep 13, 2026, 08:48 UTC

1 35028U 93036AGR 26256.36695105  .00000203  00000-0  49983-4 0  9997
2 35028  74.0364 109.7274 0083214 175.4016 357.7097 14.56763628922847

AllMySatでCOSMOS 2251 DEBをリアルタイム追跡

Download on the App Store